NO-116
1 51031U 22002AZ  22146.12706481  .00013782  00000-0  72896-3 0  9996
2 51031  97.4939 213.8925 0014515 138.4982 221.7355 15.15483837 20051
IRIS-A
1 51044U 22002BN  22146.12029182  .00005984  00000-0  33939-3 0  9996
2 51044  97.4829 213.4048 0010590 136.3419 223.8652 15.13289662 20035
DELFI-PQ
1 51074U 22002CU  22146.14038580  .00014936  00000-0  75714-3 0  9997
2 51074  97.5067 214.4001 0014759 166.9592 193.2025 15.16960568 20077
SO-115
1 51080U 22002DA  22146.16700827  .00009912  00000-0  51417-3 0  9998
2 51080  97.5082 214.3874 0014411 165.9752 194.1884 15.16259611 20073
SO-114
1 51081U 22002DB  22146.43156988  .00009053  00000-0  46984-3 0  9991
2 51081  97.5074 214.6338 0014806 165.0648 195.1025 15.16264701 20115
OreSat0
1 52017U 22026K   22146.49778650  .00007868  00000-0  42345-3 0  9998
2 52017  97.5015 146.6311 0026970 354.4919   5.6012 15.14797824 10862
